Location: ??????????
(42.1626°N, 44.1160°E)
Time: 13:29:34
(UTC+00:00)

Cosmos 2333 Rocket - Pass Details

Date: 03 March 2021
Orbit: 837 x 864 km, 70.8° (Epoch: 13 April)

Event Time Altitude Azimuth Distance (km) Brightness Sun altitude
Rises 17:04:04 0° 206° (SSW) 3,384 5.5 -24.4°
Reaches altitude 10° 17:06:30 10° 207° (SSW) 2,456 4.7 -24.8°
Maximum altitude 17:12:09 80° 294° (WNW) 865 2.2 -25.8°
Drops below altitude 10° 17:17:53 10° 23° (NNE) 2,490 4.6 -26.8°
Sets 17:20:22 0° 24° (NNE) 3,434 5.3 -27.3°
